This is the latest recevied weather packets stored in our database for station/object GAPWX. If no packets are shown the sender has not sent any weather packets the latest 1 day(s).
| Time | Temp. | Humidity | Pressure | Rain* | Wind** | Luminosity | Snow |
|---|---|---|---|---|---|---|---|
| 1778085721 | 15.56° C | 55% | 1019.7 hPa | 0 mm | - | - | - |
| 1778078209 | 5° C | 78% | 1019.7 hPa | 0 mm | - | - | - |
| 1778076973 | 4.44° C | 77% | 1019.6 hPa | 0 mm | - | - | - |
| 1778075470 | 3.89° C | 77% | 1019.3 hPa | 0 mm | - | - | - |
| 1778075181 | 3.89° C | 76% | 1019.2 hPa | 0 mm | - | - | - |
| 1778073960 | 3.89° C | 76% | 1019 hPa | 0 mm | - | - | - |
| 1778069138 | 3.89° C | 75% | 1018.2 hPa | 16.76 mm | - | - | - |
| 1778066124 | 3.89° C | 75% | 1018 hPa | 16.76 mm | - | - | - |
| 1778064924 | 3.89° C | 75% | 1017.8 hPa | 16.76 mm | - | - | - |
| 1778063111 | 4.44° C | 74% | 1017.7 hPa | 16.76 mm | - | - | - |
| 1778060401 | 5° C | 73% | 1017.3 hPa | 16.76 mm | - | - | - |
| 1778060097 | 5° C | 74% | 1017.3 hPa | 16.76 mm | - | - | - |
| 1778059797 | 5° C | 73% | 1017.4 hPa | 16.76 mm | - | - | - |
| 1778058896 | 5° C | 73% | 1017.4 hPa | 16.76 mm | - | - | - |
| 1778057988 | 5.56° C | 73% | 1017.3 hPa | 16.76 mm | - | - | - |
| 1778057687 | 5.56° C | 73% | 1017.4 hPa | 16.76 mm | - | - | - |
| 1778055878 | 6.11° C | 73% | 1017.5 hPa | 16.76 mm | - | - | - |
| 1778054070 | 6.67° C | 73% | 1017.3 hPa | 16.76 mm | - | - | - |
| 1778053467 | 6.67° C | 73% | 1017.2 hPa | 16.76 mm | - | - | - |
| 1778053171 | 6.67° C | 73% | 1017.2 hPa | 16.76 mm | - | - | - |
| 1778052564 | 6.67° C | 73% | 1017.2 hPa | 16.76 mm | - | - | - |
| 1778052261 | 6.67° C | 73% | 1017.1 hPa | 16.76 mm | - | - | - |
| 1778051960 | 6.67° C | 73% | 1017.2 hPa | 16.76 mm | - | - | - |
| 1778051663 | 6.67° C | 73% | 1017.2 hPa | 16.76 mm | - | - | - |
| 1778050757 | 6.67° C | 73% | 1016.9 hPa | 16.76 mm | - | - | - |
* Rain since midnight (hover to see other rain measurements)
** Current wind speed in m/s (hover to see current wind gust speed)